GW1477 Weather Reports


time (UTC)temp
C
wind
direction
speed
KPH
gust
KPH
rain 1hr
cm
rain 24hr
cm
rain mn
cm
humidity
%
barometer
mb
20260508043936 3 177 0.0 0.0 0.00 0.00 0.00 76
20260508043347 3 177 0.0 0.0 0.00 0.00 0.00 76
20260508042723 3 177 0.0 0.0 0.00 0.00 0.00 75
20260508042141 3 177 0.0 0.0 0.00 0.00 0.00 74
20260508041532 3 179 0.0 0.0 0.00 0.00 0.00 73
20260508040318 4 182 0.0 0.0 0.00 0.00 0.00 71
20260508035120 5 169 0.0 0.0 0.00 0.00 0.00 70
20260508034526 5 171 0.0 0.0 0.00 0.00 0.00 69
20260508033916 5 176 0.0 0.0 0.00 0.00 0.00 70
20260508033321 5 175 0.0 0.0 0.00 0.00 0.00 68
20260508032734 5 176 0.0 0.0 0.00 0.00 0.00 73
20260508032147 5 174 0.0 0.0 0.00 0.00 0.00 72
20260508031526 5 173 0.0 0.0 0.00 0.00 0.00 75
20260508030931 5 182 0.0 0.0 0.00 0.00 0.00 75
20260508030311 5 195 0.0 0.0 0.00 0.00 0.00 72
20260508025719 5 177 0.0 0.0 0.00 0.00 0.00 72
20260508025114 6 178 0.0 0.0 0.00 0.00 0.00 72
20260508024525 6 183 0.0 0.0 0.00 0.00 0.00 68
20260508023946 6 173 0.0 0.0 0.00 0.00 0.00 67
20260508023341 7 180 0.0 0.0 0.00 0.00 0.00 70
20260508022723 6 183 1.6 6.4 0.00 0.00 0.00 63
20260508021515 6 166 0.0 0.0 0.00 0.00 0.00 69
20260508020945 6 230 0.0 0.0 0.00 0.00 0.00 68
20260508020349 6 176 0.0 1.6 0.00 0.00 0.00 70
20260508015738 6 179 0.0 0.0 0.00 0.00 0.00 68
20260508015145 7 180 0.0 0.0 0.00 0.00 0.00 66
20260508014517 7 180 0.0 0.0 0.00 0.00 0.00 65
20260508012725 7 166 0.0 1.6 0.00 0.00 0.00 67
20260508011528 7 174 0.0 0.0 0.00 0.00 0.00 65
20260508010935 7 177 0.0 0.0 0.00 0.00 0.00 66
20260508010349 8 178 0.0 0.0 0.00 0.00 0.00 66
20260508005736 8 178 0.0 0.0 0.00 0.00 0.00 65
20260508003908 8 181 0.0 0.0 0.00 0.00 0.00 65
20260508003340 9 139 3.2 4.8 0.00 0.00 0.00 59
20260508002734 10 174 1.6 1.6 0.00 0.00 0.00 60
20260508002110 10 176 0.0 0.0 0.00 0.00 0.00 56
20260508001532 10 177 3.2 9.7 0.00 0.00 0.00 54
20260508000949 10 181 0.0 1.6 0.00 0.00 0.00 55
20260508000335 10 170 0.0 3.2 0.00 0.00 0.00 56
20260507235747 10 115 3.2 3.2 0.00 0.00 0.00 55
20260507235119 11 153 3.2 4.8 0.00 0.00 0.00 53
20260507234551 11 226 0.0 4.8 0.00 0.00 0.00 52
20260507233938 11 151 4.8 6.4 0.00 0.00 0.00 51
20260507233347 11 2 6.4 6.4 0.00 0.00 0.00 49
20260507231535 13 189 1.6 3.2 0.00 0.00 0.00 52
20260507225744 12 21 4.8 6.4 0.00 0.00 0.00 50
20260507225120 12 204 1.6 4.8 0.00 0.00 0.00 48
20260507224527 13 188 3.2 9.7 0.00 0.00 0.00 48
20260507223918 12 198 1.6 9.7 0.00 0.00 0.00 47
20260507223338 13 315 8.0 12.9 0.00 0.00 0.00 48
20260507222719 13 200 4.8 6.4 0.00 0.00 0.00 48
20260507221516 13 193 1.6 16.1 0.00 0.00 0.00 48
20260507220312 13 180 0.0 3.2 0.00 0.00 0.00 51
20260507215738 13 355 6.4 11.3 0.00 0.00 0.00 50
20260507215144 13 35 3.2 6.4 0.00 0.00 0.00 51
20260507213944 13 171 1.6 4.8 0.00 0.00 0.00 51
20260507212737 13 284 3.2 11.3 0.00 0.00 0.00 50
20260507211532 13 204 0.0 4.8 0.00 0.00 0.00 50
20260507210928 13 186 1.6 9.7 0.00 0.00 0.00 50
20260507210344 13 307 4.8 11.3 0.00 0.00 0.00 51
20260507204547 13 141 3.2 12.9 0.00 0.00 0.00 51
20260507202737 13 345 4.8 9.7 0.00 0.00 0.00 50
20260507202152 13 283 8.0 11.3 0.00 0.00 0.00 50
20260507201538 15 351 4.8 6.4 0.00 0.00 0.00 50
20260507200938 15 155 0.0 9.7 0.00 0.00 0.00 53
20260507195752 13 163 3.2 6.4 0.00 0.00 0.00 52
20260507195151 14 172 3.2 6.4 0.00 0.00 0.00 52
20260507194514 15 148 4.8 11.3 0.00 0.00 0.00 50
20260507193951 15 225 3.2 3.2 0.00 0.00 0.00 50
20260507192732 14 180 1.6 4.8 0.00 0.00 0.00 52
20260507192146 15 177 1.6 6.4 0.00 0.00 0.00 51
20260507191535 15 3 6.4 11.3 0.00 0.00 0.00 49
20260507190936 15 192 3.2 3.2 0.00 0.00 0.00 53
20260507185724 15 171 0.0 6.4 0.00 0.00 0.00 53
20260507185150 14 348 4.8 6.4 0.00 0.00 0.00 54
20260507184549 14 170 0.0 4.8 0.00 0.00 0.00 54
20260507183952 14 155 1.6 4.8 0.00 0.00 0.00 54
20260507183308 15 358 6.4 11.3 0.00 0.00 0.00 54
20260507182714 14 214 3.2 4.8 0.00 0.00 0.00 55
20260507182150 13 169 0.0 4.8 0.00 0.00 0.00 57
20260507181510 13 337 3.2 11.3 0.00 0.00 0.00 58
20260507180928 13 204 1.6 6.4 0.00 0.00 0.00 59
20260507180324 14 203 0.0 9.7 0.00 0.00 0.00 62
20260507174520 13 199 0.0 4.8 0.00 0.00 0.00 60
20260507173945 14 270 3.2 4.8 0.00 0.00 0.00 62
20260507172732 13 161 1.6 4.8 0.00 0.00 0.00 61
20260507172129 13 177 6.4 6.4 0.00 0.00 0.00 63
20260507170911 12 168 1.6 4.8 0.00 0.00 0.00 63
20260507170321 12 335 1.6 3.2 0.00 0.00 0.00 66
20260507165750 12 191 3.2 4.8 0.00 0.00 0.00 66
20260507165135 12 195 0.0 4.8 0.00 0.00 0.00 67
20260507163923 12 212 1.6 3.2 0.00 0.00 0.00 68
20260507162722 11 185 0.0 0.0 0.00 0.00 0.00 70
20260507162152 11 350 6.4 6.4 0.00 0.00 0.00 69
20260507161555 11 190 3.2 4.8 0.00 0.00 0.00 69
20260507160923 11 173 0.0 4.8 0.00 0.00 0.00 72
20260507160346 10 204 0.0 4.8 0.00 0.00 0.00 73
20260507155731 10 179 0.0 0.0 0.00 0.00 0.00 72
20260507155123 10 341 3.2 4.8 0.00 0.00 0.00 72
20260507154519 10 187 1.6 6.4 0.00 0.00 0.00 70
20260507153911 10 195 1.6 4.8 0.00 0.00 0.00 73
20260507153316 10 195 1.6 4.8 0.00 0.00 0.00 73
20260507152750 10 192 0.0 3.2 0.00 0.00 0.00 74
20260507151534 10 179 0.0 3.2 0.00 0.00 0.00 73
20260507150347 10 173 0.0 0.0 0.00 0.00 0.00 73
20260507145715 9 187 0.0 0.0 0.00 0.00 0.00 76
20260507145111 10 180 0.0 4.8 0.00 0.00 0.00 74
20260507144515 9 182 0.0 0.0 0.00 0.00 0.00 75
20260507143939 9 179 0.0 3.2 0.00 0.00 0.00 76
20260507143320 9 182 0.0 0.0 0.00 0.00 0.00 74
20260507142123 8 185 0.0 1.6 0.00 0.00 0.00 77
20260507141518 8 179 0.0 3.2 0.00 0.00 0.00 76
20260507140926 8 182 0.0 3.2 0.00 0.00 0.00 79
20260507140342 8 172 1.6 3.2 0.00 0.00 0.00 80
20260507135144 7 180 0.0 1.6 0.00 0.00 0.00 80
20260507134519 7 185 0.0 1.6 0.00 0.00 0.00 80
20260507133319 7 205 3.2 3.2 0.00 0.00 0.00 82
20260507132743 7 171 0.0 0.0 0.00 0.00 0.00 82
20260507132122 6 188 0.0 1.6 0.00 0.00 0.00 82
20260507130911 6 172 1.6 3.2 0.00 0.00 0.00 83
20260507130312 6 177 0.0 1.6 0.00 0.00 0.00 85
20260507124550 6 174 0.0 1.6 0.00 0.00 0.00 90
20260507123943 6 177 0.0 0.0 0.00 0.00 0.00 91
20260507123343 6 181 0.0 0.0 0.00 0.00 0.00 91
20260507122748 6 178 0.0 0.0 0.00 0.00 0.00 91
20260507122127 7 180 0.0 0.0 0.00 0.00 0.00 92
20260507120340 7 175 1.6 3.2 0.00 0.00 0.00 91
20260507115712 7 179 0.0 1.6 0.00 0.00 0.00 93
20260507115147 7 170 1.6 3.2 0.00 0.00 0.00 93
20260507114527 7 178 0.0 0.0 0.00 0.00 0.00 93
20260507113916 7 178 0.0 0.0 0.00 0.00 0.00 93
20260507113326 7 176 0.0 0.0 0.00 0.00 0.00 93
20260507112752 7 162 0.0 0.0 0.00 0.00 0.00 93
20260507111513 7 166 0.0 0.0 0.00 0.00 0.00 94
20260507110940 7 179 0.0 0.0 0.00 0.00 0.00 94
20260507110320 7 179 0.0 0.0 0.00 0.00 0.00 94
20260507105718 7 172 0.0 0.0 0.00 0.00 0.00 94
20260507105143 7 180 0.0 0.0 0.00 0.00 0.00 95
20260507104546 7 180 0.0 0.0 0.00 0.00 0.00 95
20260507103320 7 180 0.0 0.0 0.00 0.00 0.00 95
20260507102729 7 178 0.0 0.0 0.00 0.00 0.00 95
20260507101525 7 180 0.0 0.0 0.00 0.00 0.00 95
20260507100912 7 180 0.0 0.0 0.00 0.00 0.00 94
20260507100332 7 180 0.0 0.0 0.00 0.00 0.00 94
20260507095740 8 175 0.0 0.0 0.00 0.00 0.00 94
20260507095110 8 181 0.0 0.0 0.00 0.00 0.00 94
20260507093930 8 178 0.0 1.6 0.00 0.00 0.00 94
20260507093344 8 179 0.0 0.0 0.00 0.00 0.00 94
20260507092744 8 181 0.0 0.0 0.00 0.00 0.00 94
20260507092130 8 179 0.0 0.0 0.00 0.00 0.00 95
20260507091510 8 180 0.0 1.6 0.00 0.00 0.00 95
20260507090940 8 181 0.0 0.0 0.00 0.00 0.00 95
20260507090318 8 182 0.0 0.0 0.00 0.00 0.00 95
20260507085715 8 179 0.0 0.0 0.00 0.00 0.00 95
20260507085109 8 180 0.0 0.0 0.00 0.00 0.00 95
20260507084541 8 182 0.0 0.0 0.00 0.00 0.00 95
20260507083925 8 181 0.0 0.0 0.00 0.00 0.00 95
20260507083327 8 182 0.0 0.0 0.00 0.00 0.00 95
20260507082121 8 178 0.0 0.0 0.00 0.00 0.00 94
20260507081530 8 178 0.0 0.0 0.00 0.00 0.00 94
20260507080917 8 180 0.0 0.0 0.00 0.00 0.00 94
20260507080337 8 178 0.0 0.0 0.00 0.00 0.00 94
20260507075716 8 179 0.0 0.0 0.00 0.00 0.00 94
20260507075136 8 180 0.0 0.0 0.00 0.00 0.00 94
20260507074541 8 180 0.0 0.0 0.00 0.00 0.00 94
20260507073952 8 179 0.0 0.0 0.00 0.00 0.00 93
20260507073329 8 179 0.0 0.0 0.00 0.00 0.00 93
20260507072748 8 178 0.0 0.0 0.00 0.00 0.00 93
20260507072116 8 162 0.0 0.0 0.00 0.00 0.00 93
20260507071537 8 177 0.0 0.0 0.00 0.00 0.00 93
20260507070310 8 172 0.0 0.0 0.00 0.00 0.00 93
20260507065753 9 171 0.0 0.0 0.00 0.00 0.00 93
20260507064514 9 179 0.0 0.0 0.00 0.00 0.00 93
20260507063913 9 181 0.0 0.0 0.00 0.00 0.00 94
20260507063347 9 178 0.0 0.0 0.00 0.00 0.00 94
20260507062716 9 182 0.0 0.0 0.00 0.00 0.00 93
20260507062130 10 181 0.0 0.0 0.00 0.00 0.00 93
20260507061517 10 180 0.0 0.0 0.00 0.00 0.00 93
20260507060928 10 182 0.0 1.6 0.00 0.00 0.00 92
20260507060317 10 171 0.0 0.0 0.00 0.00 0.00 92
20260507055734 10 135 0.0 1.6 0.00 0.00 0.00 92
20260507055110 10 174 1.6 3.2 0.00 0.00 0.00 92
20260507053926 10 178 1.6 3.2 0.00 0.00 0.00 93
20260507052712 10 172 0.0 4.8 0.00 0.00 0.00 93
20260507052148 10 189 0.0 1.6 0.00 0.00 0.00 92
20260507051524 10 179 0.0 0.0 0.00 0.00 0.00 93
20260507050911 11 121 0.0 0.0 0.00 0.00 0.00 94
20260507050342 11 181 0.0 0.0 0.00 0.00 0.00 93
20260507045750 11 180 0.0 0.0 0.00 0.00 0.00 93
20260507045142 11 185 1.6 1.6 0.00 0.00 0.00 94
20260507044539 11 178 3.2 3.2 0.00 0.00 0.00 95